Location: West Sayville
(40.7279°N, 73.0976°W)
Time: 06:05:35
(UTC+00:00)

BREEZE-M R/B - Pass Details

Date: 29 October 2020
Orbit: 309 x 4522 km, 49.7° (Epoch: 27 November)

Event Time Altitude Azimuth Distance (km) Brightness Sun altitude
Rises 22:18:25 0° 297° (WNW) 2,318 6.9 -5.7°
Reaches altitude 10° 22:20:15 10° 312° (NW) 1,661 5.8 -6.0°
Maximum altitude 22:23:24 27° 13° (NNE) 1,273 4.4 -6.6°
Drops below altitude 10° 22:28:45 10° 70° (ENE) 2,936 5.8 -7.6°
Enters shadow 22:29:14 - 72° (ENE) 3,123 6.0 -7.7°
